Voltar ao catálogo

COSMOS 1695

AtivoMilitarPO
NORAD 16143·PAYLOAD·🇷🇺 Russia

Lançado Oct 9, 1985 de Plesetsk Cosmodrome

Loading…

Próximas Passagens (próximas 24 horas)

TLE

AtualizadoSource: Space-Track

Época: Sep 14, 2026, 06:42 UTC

1 16143U 85094F   26257.27944660  .00000004  00000-0 -35966-4 0  9999
2 16143  82.6034 211.5895 0006053 281.1398 147.7918 12.62895746886747

Acompanhe COSMOS 1695 em tempo real com AllMySat

Download on the App Store